Orbital Elements
Epoch 2025 May 5.0 TT = JDT 2460800.5
T 2027 Oct. 26.62670 TT Pike
q 4.4093175 (2000.0) P Q
z -0.0005983 Peri. 108.98920 -0.33709997 -0.90983945
+/-0.0000082 Node 345.93363 -0.38053344 +0.36677149
e 1.0026380 Incl. 95.35970 +0.86113756 -0.19408982
From 348 observations 2024 July 3-2025 Aug. 6, mean residual 0".3.
|